Hourly Weather Roundup
Issued by NWS Central Illinois

Home | Current Version | Previous Version | Text Only | Print | Product List | Glossary On
Versions: 1 2 3 4 5 6 7 8 9 10 11 12 13 14 15 16 17 18 19 20 21 22 23 24 25 26 27 28 29 30 31 32 33 34 35 36 37 38 39 40 41 42 43 44 45 46 47 48 49 50
000
NZUS43 KILX 290710
HWRILX

AREA WEATHER ROUNDUP
NATIONAL WEATHER SERVICE, LINCOLN IL
100 AM CST THU JAN 29 2015


CITY           SKY/WX    TMP DP  RH WIND       PRES   REMARKS
BLOOMINGTON    MOCLDY    36  31  82 S18       29.74F WCI  26
CHAMPAIGN      MOCLDY    37  28  70 S22       29.79F WCI  26
DECATUR        MOCLDY    40  30  67 S18       29.77F WCI  31
FLORA          CLOUDY    40  33  74 S14       29.87F WCI  33
GALESBURG      MOCLDY    38  34  84 S9        29.67F WCI  32
JACKSONVILLE   CLOUDY    44  35  72 S13       29.73F
LACON          CLOUDY    38  31  74 S10       29.70F WCI  32
LAWRENCEVILLE  LGT RAIN  40  29  64 S14       29.93F WCI  32
LITCHFIELD     CLOUDY    40  32  73 S16       29.77F WCI  32
$$


CITY           SKY/WX    TMP DP  RH WIND       PRES   REMARKS
LINCOLN        CLOUDY    40  33  73 S18       29.74F WCI  31
MACOMB         CLOUDY    38  34  84 S16       29.70F WCI  29
MATTOON        MOCLDY    38  28  67 S18G26    29.81F WCI  28
MT CARMEL AP   HVY RAIN  41  30  65 S12       29.93F WCI  34
OLNEY-NOBLE AP CLOUDY    41  32  70 SE14      29.88F WCI  33
PARIS          MOCLDY    38  29  70 S18G24    29.86F WCI  28
PEORIA         CLOUDY    39  32  76 S12       29.71F WCI  32
PONTIAC        MOCLDY    37  31  78 S25       29.74F WCI  26
RANTOUL        MOCLDY    37  30  77 SE13      29.79F WCI  28
ROBINSON       CLOUDY    40  27  60 S13       29.92F WCI  32
SPRINGFIELD    CLOUDY    42  33  70 S18G26    29.74F WCI  34
TAYLORVILLE    CLOUDY    41  32  70 S17G28    29.77F WCI  32
$$

...REGIONAL REPORTS...


CITY           SKY/WX    TMP DP  RH WIND       PRES   REMARKS
CHICAGO O`HARE CLOUDY    34  26  72 S12       29.77F WCI  25
KANKAKEE       MOCLDY    37  28  70 S14G21    29.79F WCI  28
MOLINE         MOCLDY    38  31  76 CALM      29.66F
MOUNT VERNON   CLOUDY    46  34  61 S16       29.87F
PITTSFIELD     CLOUDY    46  37  70 S9        29.72F
QUINCY         CLOUDY    46  36  68 SW14      29.69F
ROCKFORD       CLOUDY    35  28  75 S15       29.74F WCI  25
$$


CITY           SKY/WX    TMP DP  RH WIND       PRES   REMARKS
BURLINGTON     PTCLDY    40  34  79 S10       29.65F WCI  33
CEDAR RAPIDS   PTCLDY    30  30 100 NW9       29.70R FOG     WCI  22
DES MOINES     CLOUDY    37  30  75 N28G37    29.83R WCI  25
KIRKSVILLE     LGT RAIN  47  37  68 NW18G30   29.76R
OTTUMWA        PTCLDY    33  31  92 NW13      29.73R WCI  24
ST LOUIS       CLOUDY    54  38  54 SW20G28   29.77F
$$


CITY           SKY/WX    TMP DP  RH WIND       PRES   REMARKS
TERRE HAUTE    CLOUDY    39  24  55 S16G24    29.90F WCI  30
EVANSVILLE     CLOUDY    44  28  53 S9        29.98F
INDIANAPOLIS   CLOUDY    33  19  56 S14       29.94F WCI  23
LAFAYETTE      CLOUDY    36  21  54 S12       29.87F WCI  28
MADISON        CLOUDY    32  26  78 CALM      29.76F
MILWAUKEE      CLOUDY    33  24  69 S8        29.78F WCI  26
$$





USA.gov is the U.S. government's official web portal to all federal, state and local government web resources and services.